This is the latest recevied weather packets stored in our database for station/object N5MDT. If no packets are shown the sender has not sent any weather packets the latest 10 day(s).
| Time | Temp. | Humidity | Pressure | Rain* | Wind** | Luminosity | Snow |
|---|---|---|---|---|---|---|---|
| 1777775931 | 21.11° C | 66% | 1021.1 hPa | 0 mm | - | - | - |
| 1777775301 | 21.11° C | 65% | 1020.8 hPa | 0 mm | - | - | - |
| 1777774701 | 21.67° C | 64% | 1020.7 hPa | 0 mm | - | - | - |
| 1777774101 | 21.67° C | 63% | 1020.7 hPa | 0 mm | - | - | - |
| 1777773501 | 22.22° C | 62% | 1020.5 hPa | 0 mm | - | - | - |
| 1777772901 | 22.78° C | 62% | 1020.4 hPa | 0 mm | - | - | - |
| 1777772301 | 22.78° C | 60% | 1020.2 hPa | 0 mm | - | - | - |
| 1777771701 | 23.33° C | 60% | 1020.3 hPa | 0 mm | - | - | - |
| 1777771101 | 23.89° C | 58% | 1020.2 hPa | 0 mm | - | - | - |
| 1777770501 | 24.44° C | 56% | 1020.1 hPa | 0 mm | - | - | - |
| 1777769901 | 25° C | 53% | 1020.1 hPa | 0 mm | - | - | - |
| 1777769301 | 25.56° C | 51% | 1020 hPa | 0 mm | - | - | - |
| 1777768731 | 26.11° C | 51% | 1020 hPa | 0 mm | - | - | - |
| 1777768100 | 26.67° C | 49% | 1019.8 hPa | 0 mm | - | - | - |
| 1777767500 | 27.22° C | 47% | 1019.8 hPa | 0 mm | - | - | - |
| 1777766901 | 27.78° C | 45% | 1019.7 hPa | 0 mm | - | - | - |
| 1777766300 | 28.33° C | 46% | 1019.5 hPa | 0 mm | - | - | - |
| 1777765700 | 28.33° C | 45% | 1019.5 hPa | 0 mm | - | - | - |
| 1777765100 | 28.89° C | 45% | 1019.5 hPa | 0 mm | - | - | - |
| 1777764530 | 28.89° C | 43% | 1019.5 hPa | 0 mm | - | - | - |
| 1777763930 | 29.44° C | 46% | 1019.5 hPa | 0 mm | - | - | - |
| 1777763300 | 29.44° C | 46% | 1019.5 hPa | 0 mm | - | - | - |
| 1777762730 | 28.89° C | 45% | 1019.5 hPa | 0 mm | - | - | - |
| 1777762099 | 28.33° C | 45% | 1019.5 hPa | 0 mm | - | - | - |
| 1777761499 | 28.33° C | 46% | 1019.5 hPa | 0 mm | - | - | - |
* Rain latest hour (hover to see other rain measurements)
** Current wind speed in m/s (hover to see current wind gust speed)